sat.trackr.live / text

‹ back to catalog

STARLINK-4082

NORAD 52658 · 2022-053C

PAYLOAD ACTIVE UNKNOWN

§ Identity

Operator
Country
US
Launch date
2022-05-18
Launch site
AFETR
Launch vehicle
Mass (kg)
RCS (m²)

Purposes: comms

External: N2YO · Heavens-Above · Gunter

§ Orbital elements

Epoch: 2026-09-19T15:30:00.331488Z

Period
95.44 min
Inclination
53.1623°
Eccentricity
0.0001220
Mean motion
15.08833721 rev/d
Perigee alt
538.9 km
Apogee alt
540.6 km
Semi-major
6,917.9 km
B*
-6.9034e-6
RAAN
2.7612°
Arg perigee
87.4030°
Mean anomaly
272.7101°
Rev number
24,051

§ Raw data

STARLINK-40821 52658U 22053C   26262.64583717 -.00000398  00000+0 -69034-5 0  99952 52658  53.1623   2.7612 0001220  87.4030 272.7101 15.08833721240513

JSON: /api/v1/satellites/52658 · /tle

For live sub-satellite position, see the globe view (requires WebGL).

§ Visibility from observer

Set your observer location to see the next 7 days of passes ≥ 10°. The values pass through the URL so the page stays shareable.

No JS? Fill the form by hand. The geolocation button needs JavaScript.